User: anonymous   Login
Location: Unspecified
(0.0000°N, 0.0000°E)
Time: 16:03:03
(UTC+00:00)
Language:

USA 236 - Orbit

View from above orbital plane
View from above orbital plane
View from above satellite
View from above satellite

Ground track
Ground track

The orbit data is extracted from the following two-line orbital elements,

1 38466U 12033A   18282.47233776 0.00000000  00000-0  00000-0 0    09
2 38466   1.4795 164.0777 0003453 127.2757 232.7730  1.00270000    07
Epoch (UTC): 09 October 2018 11:20:09
Eccentricity: 0.0003453
inclination: 1.4795°
perigee height: 35772 km
apogee height: 35801 km
right ascension of ascending node: 164.0777°
argument of perigee: 127.2757°
revolutions per day: 1.00270000
mean anomaly at epoch: 232.7730°
orbit number at epoch: 0

The dashed part of the orbit path shows where the satellite is in the earth's shadow,  

DLR